| time (UTC) | temp C | wind direction | speed KPH | gust KPH | rain 1hr cm | rain 24hr cm | rain mn cm | humidity % | barometer mb |
| 20260508125320 | 13 | 360 | 0.0 | 6.4 | 0.00 | 0.00 | 0.00 | 76 | 1010.9 |
| 20260508123730 | 13 | 173 | 1.6 | 1.6 | 0.00 | 0.00 | 0.00 | 75 | 1011.1 |
| 20260508122141 | 13 | 173 | 1.6 | 4.8 | 0.00 | 0.00 | 0.00 | 74 | 1010.8 |
| 20260508120553 | 13 | 360 | 0.0 | 0.0 | 0.00 | 0.00 | 0.00 | 73 | 1011.0 |
| 20260508115004 | 13 | 360 | 0.0 | 9.7 | 0.00 | 0.00 | 0.00 | 72 | 1011.2 |
| 20260508113415 | 13 | 322 | 3.2 | 3.2 | 0.00 | 0.00 | 0.00 | 70 | 1010.6 |
| 20260508111827 | 14 | 331 | 3.2 | 6.4 | 0.00 | 0.00 | 0.00 | 67 | 1010.4 |
| 20260508110236 | 14 | 204 | 6.4 | 11.3 | 0.00 | 0.00 | 0.00 | 67 | 1010.2 |
| 20260508104647 | 13 | 218 | 12.9 | 14.5 | 0.00 | 0.00 | 0.00 | 67 | 1010.1 |
| 20260508103058 | 13 | 245 | 4.8 | 11.3 | 0.00 | 0.00 | 0.00 | 68 | 1010.1 |
| 20260508101510 | 13 | 246 | 3.2 | 14.5 | 0.00 | 0.00 | 0.00 | 68 | 1010.1 |
| 20260508095920 | 13 | 248 | 1.6 | 12.9 | 0.00 | 0.00 | 0.00 | 68 | 1010.2 |
| 20260508092742 | 13 | 213 | 4.8 | 14.5 | 0.00 | 0.00 | 0.00 | 68 | 1010.1 |
| 20260508091154 | 13 | 194 | 3.2 | 14.5 | 0.00 | 0.00 | 0.00 | 70 | 1010.1 |
| 20260508085605 | 13 | 287 | 4.8 | 11.3 | 0.00 | 0.00 | 0.00 | 71 | 1010.2 |
| 20260508084015 | 13 | 360 | 0.0 | 8.0 | 0.00 | 0.00 | 0.00 | 70 | 1010.1 |
| 20260508082426 | 13 | 226 | 4.8 | 16.1 | 0.00 | 0.00 | 0.00 | 70 | 1010.3 |
| 20260508080837 | 13 | 238 | 4.8 | 16.1 | 0.00 | 0.00 | 0.00 | 70 | 1010.4 |
| 20260508075248 | 13 | 251 | 1.6 | 11.3 | 0.00 | 0.00 | 0.00 | 70 | 1010.8 |
| 20260508073659 | 13 | 185 | 4.8 | 8.0 | 0.00 | 0.00 | 0.00 | 70 | 1011.0 |
| 20260508072111 | 13 | 240 | 1.6 | 9.7 | 0.00 | 0.00 | 0.00 | 69 | 1011.2 |
| 20260508070521 | 13 | 234 | 1.6 | 3.2 | 0.00 | 0.00 | 0.00 | 68 | 1011.3 |
| 20260508064932 | 13 | 241 | 3.2 | 8.0 | 0.00 | 0.00 | 0.00 | 67 | 1011.5 |
| 20260508063343 | 13 | 149 | 1.6 | 4.8 | 0.00 | 0.00 | 0.00 | 66 | 1011.7 |
| 20260508061754 | 14 | 194 | 3.2 | 6.4 | 0.00 | 0.00 | 0.00 | 65 | 1012.0 |
| 20260508060205 | 14 | 147 | 1.6 | 4.8 | 0.00 | 0.00 | 0.00 | 65 | 1012.1 |
| 20260508054616 | 14 | 360 | 0.0 | 6.4 | 0.00 | 0.00 | 0.00 | 64 | 1012.1 |
| 20260508053027 | 15 | 185 | 4.8 | 6.4 | 0.00 | 0.00 | 0.00 | 63 | 1012.0 |
| 20260508051440 | 15 | 162 | 3.2 | 9.7 | 0.00 | 0.00 | 0.00 | 62 | 1012.0 |
| 20260508045849 | 15 | 169 | 6.4 | 6.4 | 0.00 | 0.00 | 0.00 | 61 | 1012.0 |
| 20260508044301 | 15 | 238 | 3.2 | 4.8 | 0.00 | 0.00 | 0.00 | 60 | 1012.2 |
| 20260508042711 | 16 | 360 | 0.0 | 8.0 | 0.00 | 0.00 | 0.00 | 60 | 1012.2 |
| 20260508041124 | 16 | 229 | 1.6 | 6.4 | 0.00 | 0.00 | 0.00 | 59 | 1012.3 |
| 20260508035533 | 16 | 161 | 1.6 | 9.7 | 0.00 | 0.00 | 0.00 | 58 | 1012.3 |
| 20260508033945 | 16 | 214 | 1.6 | 8.0 | 0.00 | 0.00 | 0.00 | 56 | 1012.2 |
| 20260508032355 | 16 | 255 | 1.6 | 8.0 | 0.00 | 0.00 | 0.00 | 56 | 1012.2 |
| 20260508030806 | 16 | 185 | 3.2 | 8.0 | 0.00 | 0.00 | 0.00 | 56 | 1012.1 |
| 20260508025220 | 17 | 137 | 3.2 | 9.7 | 0.00 | 0.00 | 0.00 | 56 | 1012.0 |
| 20260508023630 | 17 | 178 | 3.2 | 11.3 | 0.00 | 0.00 | 0.00 | 55 | 1011.9 |
| 20260508022041 | 17 | 190 | 1.6 | 8.0 | 0.00 | 0.00 | 0.00 | 55 | 1011.6 |
| 20260508020450 | 17 | 196 | 3.2 | 14.5 | 0.00 | 0.00 | 0.00 | 54 | 1011.5 |
| 20260508014901 | 17 | 203 | 3.2 | 6.4 | 0.00 | 0.00 | 0.00 | 53 | 1011.4 |
| 20260508013312 | 18 | 184 | 1.6 | 4.8 | 0.00 | 0.00 | 0.00 | 52 | 1011.3 |
| 20260508011723 | 18 | 182 | 1.6 | 6.4 | 0.00 | 0.00 | 0.00 | 51 | 1011.3 |
| 20260508010134 | 19 | 179 | 1.6 | 3.2 | 0.00 | 0.00 | 0.00 | 49 | 1011.3 |
| 20260508004641 | 20 | 178 | 3.2 | 3.2 | 0.00 | 0.00 | 0.00 | 47 | 1011.2 |
| 20260508004545 | 20 | 178 | 3.2 | 3.2 | 0.00 | 0.00 | 0.00 | 47 | 1011.2 |
| 20260508002956 | 20 | 248 | 4.8 | 6.4 | 0.00 | 0.00 | 0.00 | 46 | 1011.2 |
| 20260508001758 | 20 | 219 | 4.8 | 4.8 | 0.00 | 0.00 | 0.00 | 46 | 1011.3 |
| 20260508001410 | 20 | 219 | 4.8 | 4.8 | 0.00 | 0.00 | 0.00 | 46 | 1011.3 |
| 20260507235818 | 20 | 296 | 1.6 | 17.7 | 0.00 | 0.00 | 0.00 | 45 | 1011.4 |
| 20260507234230 | 20 | 360 | 0.0 | 4.8 | 0.00 | 0.00 | 0.00 | 43 | 1011.5 |
| 20260507232640 | 21 | 220 | 1.6 | 12.9 | 0.00 | 0.00 | 0.00 | 43 | 1011.7 |
| 20260507231052 | 21 | 225 | 1.6 | 11.3 | 0.00 | 0.00 | 0.00 | 40 | 1011.8 |
| 20260507225504 | 21 | 225 | 6.4 | 14.5 | 0.00 | 0.00 | 0.00 | 41 | 1012.0 |
| 20260507222325 | 21 | 152 | 4.8 | 11.3 | 0.00 | 0.00 | 0.00 | 41 | 1012.2 |
| 20260507220737 | 21 | 265 | 4.8 | 9.7 | 0.00 | 0.00 | 0.00 | 45 | 1012.1 |
| 20260507215148 | 21 | 237 | 1.6 | 9.7 | 0.00 | 0.00 | 0.00 | 44 | 1012.3 |
| 20260507212010 | 21 | 257 | 6.4 | 12.9 | 0.00 | 0.00 | 0.00 | 46 | 1012.6 |
| 20260507210632 | 20 | 179 | 6.4 | 22.5 | 0.00 | 0.00 | 0.00 | 45 | 1013.3 |
| 20260507204830 | 20 | 179 | 6.4 | 22.5 | 0.00 | 0.00 | 0.00 | 45 | 1013.3 |
| 20260507203242 | 20 | 294 | 4.8 | 24.1 | 0.00 | 0.00 | 0.00 | 46 | 1013.5 |
| 20260507201652 | 20 | 348 | 8.0 | 12.9 | 0.00 | 0.00 | 0.00 | 45 | 1013.8 |
| 20260507200103 | 20 | 144 | 14.5 | 20.9 | 0.00 | 0.00 | 0.00 | 47 | 1014.1 |
| 20260507191336 | 19 | 162 | 16.1 | 22.5 | 0.00 | 0.00 | 0.00 | 46 | 1014.9 |
| 20260507185747 | 18 | 316 | 9.7 | 14.5 | 0.00 | 0.00 | 0.00 | 49 | 1014.9 |
| 20260507184158 | 18 | 224 | 11.3 | 11.3 | 0.00 | 0.00 | 0.00 | 49 | 1015.2 |
| 20260507182610 | 18 | 200 | 12.9 | 19.3 | 0.00 | 0.00 | 0.00 | 49 | 1015.2 |
| 20260507181527 | 18 | 296 | 1.6 | 16.1 | 0.00 | 0.00 | 0.00 | 50 | 1015.6 |
| 20260507181020 | 18 | 296 | 1.6 | 16.1 | 0.00 | 0.00 | 0.00 | 50 | 1015.6 |
| 20260507175512 | 18 | 219 | 9.7 | 12.9 | 0.00 | 0.00 | 0.00 | 51 | 1016.0 |
| 20260507175431 | 18 | 219 | 9.7 | 12.9 | 0.00 | 0.00 | 0.00 | 51 | 1016.0 |
| 20260507173842 | 18 | 213 | 3.2 | 14.5 | 0.00 | 0.00 | 0.00 | 51 | 1016.4 |
| 20260507172828 | 17 | 291 | 8.0 | 12.9 | 0.00 | 0.00 | 0.00 | 51 | 1016.6 |
| 20260507172253 | 17 | 291 | 8.0 | 12.9 | 0.00 | 0.00 | 0.00 | 51 | 1016.6 |
| 20260507170705 | 17 | 269 | 16.1 | 19.3 | 0.00 | 0.00 | 0.00 | 52 | 1016.8 |
| 20260507165115 | 17 | 255 | 11.3 | 17.7 | 0.00 | 0.00 | 0.00 | 53 | 1017.0 |
| 20260507163526 | 17 | 242 | 14.5 | 14.5 | 0.00 | 0.00 | 0.00 | 54 | 1017.3 |
| 20260507161937 | 16 | 215 | 3.2 | 19.3 | 0.00 | 0.00 | 0.00 | 53 | 1017.4 |
| 20260507160348 | 17 | 300 | 8.0 | 25.7 | 0.00 | 0.00 | 0.00 | 55 | 1017.5 |
| 20260507154759 | 16 | 241 | 1.6 | 19.3 | 0.00 | 0.00 | 0.00 | 55 | 1017.6 |
| 20260507153211 | 16 | 186 | 3.2 | 12.9 | 0.00 | 0.00 | 0.00 | 59 | 1017.8 |
| 20260507151621 | 15 | 347 | 3.2 | 16.1 | 0.00 | 0.00 | 0.00 | 59 | 1017.8 |
| 20260507150032 | 15 | 146 | 3.2 | 8.0 | 0.00 | 0.00 | 0.00 | 61 | 1018.1 |
| 20260507144443 | 14 | 252 | 1.6 | 20.9 | 0.00 | 0.00 | 0.00 | 62 | 1018.2 |
| 20260507142854 | 13 | 197 | 4.8 | 9.7 | 0.00 | 0.00 | 0.00 | 64 | 1018.4 |
| 20260507135717 | 12 | 229 | 11.3 | 14.5 | 0.00 | 0.00 | 0.00 | 70 | 1018.5 |
| 20260507132538 | 10 | 238 | 4.8 | 4.8 | 0.00 | 0.00 | 0.00 | 75 | 1018.4 |